Regional Weather Roundup
Issued by NWS

Home | Current Version | Previous Version | Graphics & Text | Print | Product List | Glossary Off
Versions: 1 2 3 4 5 6 7 8 9 10 11 12 13 14 15 16 17 18 19 20 21 22 23 24 25 26 27 28 29 30 31 32 33 34 35 36 37 38 39 40 41 42 43 44 45 46 47 48 49 50

000
ASUS43 KMKX 250613
RWRWI

WISCONSIN REGIONAL WEATHER ROUNDUP
NATIONAL WEATHER SERVICE MILWAUKEE/SULLIVAN WI
100 AM CDT MON MAY 25 2015

NOTE: "FAIR" INDICATES FEW OR NO CLOUDS BELOW 12,000 FEET WITH NO
SIGNIFICANT WEATHER AND/OR OBSTRUCTIONS TO VISIBILITY.

WIZ001-002-006>008-014>016-023>028-250700-
NORTHWEST WISCONSIN

CITY           SKY/WX    TMP DP  RH WIND       PRES   REMARKS
SUPERIOR ARPT  LGT RAIN  53  53  98 NE7       29.87F
ASHLAND        CLOUDY    58  58 100 NE6       29.88F FOG
6HR MIN TEMP:  57; 6HR MAX TEMP:  68; 6HR PCP:  0.17;

HAYWARD        LGT RAIN  58  55  90 E6        29.85F
6HR MIN TEMP:  58; 6HR MAX TEMP:  60; 6HR PCP:  0.19;

SIREN          LGT RAIN  58  56  95 E8        29.83F
CUMBERLAND     DRIZZLE   55  54  94 E7        29.83F
RICE LAKE      LGT RAIN  57  55  92 E8        29.84F
CHETEK         DRIZZLE   57  56  97 E8        29.82F
LADYSMITH      DRIZZLE   57  56  97 E7        29.86F
EAU CLAIRE     NOT AVBL
MENOMONIE      DRIZZLE   57  56  97 E10       29.80F
NEW RICHMOND   LGT RAIN  57  57 100 E14       29.79F
OSCEOLA        DRIZZLE   58  58 100 E7        29.81F
$$

WIZ003>005-009-010-017-018-250700-
NORTH CENTRAL WISCONSIN

CITY           SKY/WX    TMP DP  RH WIND       PRES   REMARKS
MANITOWISH WTR DRIZZLE   56  56 100 E6        29.90F
ARBOR VITAE    LGT RAIN  57  55  95 E8        29.90F
WOODRUFF       LGT RAIN  57  55  95 E8        29.90F
RHINELANDER    LGT RAIN  56  54  93 E10       29.89F
6HR MIN TEMP:  55; 6HR MAX TEMP:  57; 6HR PCP:  0.46;

EAGLE RIVER    RAIN      55  55  99 E8        29.91F
LAND O LAKES   LGT RAIN  56  56  97 E7        29.93F
PHILLIPS       LGT RAIN  55  55  99 E6        29.87F
TOMAHAWK       LGT RAIN  55  54  96 E3        29.89F
MEDFORD        LGT RAIN  54  54  99 E7        29.86F
MERRILL        LGT RAIN  56  56 100 E5        29.88F
$$

WIZ029-030-035-036-043>047-250700-
CENTRAL WISCONSIN

CITY           SKY/WX    TMP DP  RH WIND       PRES   REMARKS
WAUSAU         LGT RAIN  55  54  96 E9        29.85F
6HR MIN TEMP:  55; 6HR MAX TEMP:  57; 6HR PCP:  0.52;

MOSINEE        DRIZZLE   54  54 100 E8        29.88F
MARSHFIELD     CLOUDY    57  54  89 E10       29.84F
6HR MIN TEMP:  56; 6HR MAX TEMP:  57; 6HR PCP:  0.08;

STEVENS POINT  LGT RAIN  54  53  97 E9        29.87F
WAUPACA        LGT RAIN  58  57  97 E7        29.88F
WAUTOMA        NOT AVBL
WISC RAPIDS    LGT RAIN  57  54  89 SE7       29.85F
6HR MIN TEMP:  56; 6HR MAX TEMP:  57; 6HR PCP:  0.09;

CAMP DOUGLAS   CLOUDY    57  57 100 SE8       29.81F
$$

WIZ011>013-019>022-031-037>040-048>050-250700-
NORTHEAST WISCONSIN

CITY           SKY/WX    TMP DP  RH WIND       PRES   REMARKS
ANTIGO         DRIZZLE   54  54 100 SE10G16   29.90F
SHAWANO        RAIN      58  56  95 E7        29.91F
OCONTO         CLOUDY    56  56 100 E5        29.92F
STURGEON BAY   CLOUDY    57  54  88 E12G17    29.93F
6HR MIN TEMP:  54; 6HR MAX TEMP:  57;

GREEN BAY      LGT RAIN  59  57  93 SE6       29.89F FOG
6HR MIN TEMP:  56; 6HR MAX TEMP:  59; 6HR PCP:  0.86;

MANITOWOC      NOT AVBL
APPLETON       RAIN      55  55 100 E7        29.89F
CLINTONVILLE   RAIN      55  54  94 E6        29.89F
OSHKOSH        CLOUDY    59  57  93 SE7       29.86F FOG
6HR MIN TEMP:  56; 6HR MAX TEMP:  59; 6HR PCP:  0.48;

$$

WIZ032>034-041-042-053>061-250700-
SOUTHWEST WISCONSIN

CITY           SKY/WX    TMP DP  RH WIND       PRES   REMARKS
LA CROSSE      LGT RAIN  60  58  92 E5        29.77F FOG
6HR MIN TEMP:  60; 6HR MAX TEMP:  61; 6HR PCP:  0.25;

SPARTA         CLOUDY    58  56  95 E7        29.80F
VIROQUA        CLOUDY    59  59 100 SE14      29.80F VSB 3/4
BOSCOBEL       CLOUDY    61  59  93 NE6       29.79F FOG
6HR MIN TEMP:  60; 6HR MAX TEMP:  62; 6HR PCP:  0.04;

PRAIRIE DU CHI DRIZZLE   65  63  90 SE8       29.78F
PLATTEVILLE    CLOUDY    63  63  97 SE8       29.81F
$$

WIZ056-057-062-063-064-067-068-250700-
SOUTH CENTRAL WISCONSIN

CITY           SKY/WX    TMP DP  RH WIND       PRES   REMARKS
REEDSBURG      CLOUDY    58  58  99 CALM      29.83F FOG
BARABOO/DELLS  CLOUDY    58  56  95 E3        29.84F FOG
LONE ROCK      NOT AVBL
MINERAL POINT  LGT RAIN  63  63 100 SE7       29.83F
MADISON        LGT RAIN  61  59  93 S3        29.83F FOG
6HR MIN TEMP:  57; 6HR MAX TEMP:  61; 6HR PCP:  0.13;

MIDDLETON      CLOUDY    61  61  99 SE3       29.85F
WATERTOWN      CLOUDY    59  59 100 SE5       29.86F FOG
MONROE         CLOUDY    66  64  94 S14       29.84F
JANESVILLE     DRIZZLE   64  63  94 SE6       29.86F
$$

WIZ051-052-058>065-066-070>072-250700-
SOUTHEAST WISCONSIN

CITY           SKY/WX    TMP DP  RH WIND       PRES   REMARKS
MILWAUKEE      CLOUDY    58  56  93 NW6       29.90F FOG
6HR MIN TEMP:  53; 6HR MAX TEMP:  59; 6HR PCP:  0.12;

WAUKESHA       LGT RAIN  55  55 100 SE5       29.91F
MILWAUKEE/TIMM CLOUDY    55  54  94 CALM      29.91S FOG
RACINE         MOCLDY    58  56  93 CALM      29.90F FOG
6HR MIN TEMP:  53; 6HR MAX TEMP:  62; 6HR PCP:  0.14;

BURLINGTON     RAIN      60  59  97 CALM      29.90F
KENOSHA        MOCLDY    64  61  90 S3        29.89F
6HR MIN TEMP:  55; 6HR MAX TEMP:  64; 6HR PCP:  0.15;

FOND DU LAC    CLOUDY    59  56  89 SE7       29.86F
6HR MIN TEMP:  57; 6HR MAX TEMP:  59; 6HR PCP:  0.57;

SHEBOYGAN      LGT RAIN  54  54 100 CALM      29.90F FOG
6HR MIN TEMP:  54; 6HR MAX TEMP:  57; 6HR PCP:  0.86;

WEST BEND      LGT RAIN  55  54  94 E3        29.90F
JUNEAU         CLOUDY    58  58  97 SE10      29.88F FOG
$$

LSZ147-162-250700-
LAKE SUPERIOR

STATION/POSITION TIME  TEMP    WIND        PRES    WAVE
                       AIR SEA DIR/SP/G            HT/PER
                 (UTC) (F)     (DEG/KT/KT) (MB)    (FT/S)
W MID LAKE BUOY  0450   44 37  250/  4/  4   N/A     0
DEVILS ISLAND    0500   61     130/  2/  2   N/A
PORT WING        0500   51      40/  8/ 10   N/A
SAXON HARBOR     0540   55        CALM       N/A
$$

LMZ867-665-643>646-250700-
LAKE MICHIGAN

STATION/POSITION TIME  TEMP    WIND        PRES    WAVE
                       AIR SEA DIR/SP/G            HT/PER
                 (UTC) (F)     (DEG/KT/KT) (MB)    (FT/S)
CHAMBERS ISLAND  0500   54      60/  7/ 10   N/A
N MID LAKE BUOY  0450   45 36   80/ 10/ 10   N/A     1/ 4
NORTHPORT PIER   0500   49      90/  5/  8   N/A
SISTER BAY       0547   54     130/  9/ 15   N/A
KEWAUNEE LAKESHO 0500   51      50/  5/  8   N/A
SHEBOYGAN LAKESH 0500   52      30/  3/  3   N/A
PORT WASHINGTON  0520   55     360/  1/  9   N/A
ATWATER BUOY     0500   51 46   70/  6/  8   N/A
MILWAUKEE LAKESH 0500   54      50/  5/  6   N/A
S MID LAKE BUOY  0450   49 38  170/ 14/ 16   N/A     1
KENOSHA   LAKESH 0400   60     250/  6/ 15   N/A
$$

TC  - TEMPERATURE IN CELSIUS
VSB - VISIBILITY IN STATUTE MILES
WCI - WIND CHILL INDEX
HX  - HEAT INDEX



USA.gov is the U.S. government's official web portal to all federal, state and local government web resources and services.